Miscellaneous Local Product
Issued by NWS Hastings, NE

Home | Current Version | Previous Version | Text Only | Print | Product List | Glossary Off
Versions: 1 2 3 4 5 6 7 8 9 10 11 12 13 14 15 16 17 18 19 20 21 22 23 24 25 26 27 28 29 30 31 32 33 34 35 36 37 38 39 40 41 42 43 44 45 46 47 48 49 50

018
AXUS43 KGID 210402
MISGRI

GID CWA HOURLY WEATHER ROUNDUP
NATIONAL WEATHER SERVICE HASTINGS NE
1100 PM CDT SUN AUG 20 2017

NOTE: "FAIR" INDICATES FEW OR NO CLOUDS BELOW 12,000 FEET WITH NO
SIGNIFICANT WEATHER AND/OR OBSTRUCTIONS TO VISIBILITY.

...SOUTH CENTRAL NEBRASKA...

CITY           SKY/WX    TMP DP  RH WIND       PRES   REMARKS
GRAND ISLAND   PTCLDY    74  74 100 NE6       29.95R
HASTINGS       PTCLDY    80  71  74 S7        29.94S
KEARNEY        PTCLDY    76  74  93 NE6       29.95R
ORD            PTCLDY    73  68  84 E6        29.97S
YORK           CLOUDY    75  73  94 SE8       29.94S
AURORA         PTCLDY    74  74  98 SE6       29.94S
LEXINGTON      CLOUDY    76  73  91 NE7       29.96S
HOLDREGE       CLEAR     75  68  77 SE7       29.94R
HEBRON         PTCLDY    80  74  81 SE8       29.94R

...NEBRASKA PANHANDLE...

CITY           SKY/WX    TMP DP  RH WIND       PRES   REMARKS
CHADRON        CLOUDY    72  57  59 E9        30.00S
ALLIANCE       CLOUDY    63  59  87 E6        30.04R
SCOTTSBLUFF    PTCLDY    73  63  70 E12       30.02R
SIDNEY         CLOUDY    67  62  84 SE10      30.07S

...WESTERN AND NORTH CENTRAL NEBRASKA...

CITY           SKY/WX    TMP DP  RH WIND       PRES   REMARKS
VALENTINE      CLOUDY    73  61  65 NE10      30.02R
AINSWORTH      CLEAR     68  68  99 NE5       30.01F
ONEILL         CLEAR     69  69  99 E7        30.00S
BROKEN BOW     CLEAR     74  70  87 E8        29.99R
IMPERIAL       PTCLDY    71  66  84 E5        30.00R
NORTH PLATTE   MOCLDY    74  71  91 E7        29.98S
MCCOOK         CLOUDY    76  72  87 NE6       29.96R

...EASTERN NEBRASKA...

CITY           SKY/WX    TMP DP  RH WIND       PRES   REMARKS
NORFOLK        CLOUDY    76  70  82 E6        29.98S
SO SIOUX CITY  PTCLDY    74  69  85 E5        29.98S
TEKAMAH        CLOUDY    72  69  90 CALM      29.98R
COLUMBUS       CLEAR     73  70  90 E7        29.97R
ALBION         PTCLDY    74  71  89 NE9       29.98S
OMAHA EPPLEY   PTCLDY    75  66  73 SE8       29.99R
OFFUTT AFB     PTCLDY    73  67  81 E7        29.98R
MILLARD        CLEAR     76  69  81 SE6       29.98R
LINCOLN        CLOUDY    78  71  79 SE8       29.95R
NEBRASKA CITY  PTCLDY    75  74  99 SE7       29.99R
BEATRICE       CLEAR     81  74  79 SE13      29.96R
FALLS CITY     PTCLDY    76  73  91 SE5       29.98R

...NORTHERN KANSAS...

CITY           SKY/WX    TMP DP  RH WIND       PRES   REMARKS
GOODLAND       CLEAR     72  64  76 S9        30.02R
HILL CITY      CLOUDY    82  64  54 S8        29.96R
NORTON         CLEAR     79  61  53 S7        29.94
PHILLIPSBURG   CLEAR     82  64  54 S7        29.93R
SMITH CENTER   CLOUDY    79  66  65 SE10      29.94R
HAYS           PTCLDY    78  65  63 S8        29.97R
RUSSELL        PTCLDY    83  68  60 S15       29.95R
CONCORDIA      PTCLDY    83  71  67 S13       29.94R
SALINA         CLOUDY    88  65  46 S13       29.96R HX  90
TOPEKA         CLOUDY    82  78  88 SE10      30.00R HX  91



USA.gov is the U.S. government's official web portal to all federal, state and local government web resources and services.